Regional Weather Roundup
Issued by NWS Cleveland, OH

Home | Current Version | Previous Version | Graphics & Text | Print | Product List | Glossary On
Versions: 1 2 3 4 5 6 7 8 9 10 11 12 13 14 15 16 17 18 19 20 21 22 23 24 25 26 27 28 29 30 31 32 33 34 35 36 37 38 39 40 41 42 43 44 45 46 47 48 49 50
000
ASUS41 KCLE 210700
RWRCLE
OHIO REGIONAL WEATHER ROUNDUP
NATIONAL WEATHER SERVICE WILMINGTON, OH
300 AM EDT THU SEP 21 2017

NOTE: "FAIR" INDICATES FEW OR NO CLOUDS BELOW 12,000 FEET WITH NO
SIGNIFICANT WEATHER AND/OR OBSTRUCTIONS TO VISIBILITY.

OHZ001>008-015>018-024>027-034-035-043-044-210800-
   NORTHWEST OHIO

CITY           SKY/WX    TMP DP  RH WIND       PRES   REMARKS
DEFIANCE       FAIR      66  64  93 CALM      30.04S FOG
FINDLAY        FAIR      69  64  84 CALM      30.04F
TOLEDO EXPRESS FAIR      65  65 100 E3        30.04F
TOLEDO EXEC    FAIR      67  65  93 E3        30.06R FOG
LIMA           FAIR      68  67  96 S7        30.05F
$$

OHZ009>014-019>023-028>033-038-089-210800-
   NORTHEAST OHIO

CITY           SKY/WX    TMP DP  RH WIND       PRES   REMARKS
CLE-HOPKINS    FAIR      69  63  81 CALM      30.09R
CLE-LAKEFRONT  FAIR      71  63  75 CALM      30.06R
CUY CO. ARPT   NOT AVBL
LORAIN-ELYRIA  FAIR      62  57  83 CALM      30.08R
ASHTABULA      FAIR      60  60 100 CALM      30.10R FOG
AKRON-CANTON   FAIR      66  62  87 W3        30.10R
WOOSTER        NOT AVBL
MANSFIELD      FAIR      65  64  97 S3        30.10R
YOUNGSTOWN     FAIR      63  62  97 CALM      30.09R
$$

OHZ042-051>053-060>062-070>072-077>081-210800-
  SOUTHWEST OHIO

CITY           SKY/WX    TMP DP  RH WIND       PRES   REMARKS
CINC-COVINGTON FAIR      69  69 100 CALM      30.06R
CINC-LUNKEN    FOG       65  65 100 CALM      30.07R VSB 1/4
HAMILTON       FAIR      63  63 100 CALM      30.07S FOG
DAYTON         NOT AVBL
WRIGHT-PAT AFB NOT AVBL
DAYTON GENERAL FAIR      66  64  93 CALM      30.06S
WILMINGTON     FAIR      66  66 100 CALM      30.08R FOG
$$

OHZ036-037-039>041-045>050-054>059-063>069-073>076-082>088-210800-
  CENTRAL AND SOUTHEAST OHIO

CITY           SKY/WX    TMP DP  RH WIND       PRES   REMARKS
COLUMBUS       FAIR      66  66 100 CALM      30.07R
OSU AIRPORT    FOG       65  65 100 CALM      30.07R VSB 1/2
BOLTON FIELD   FAIR      63  63 100 CALM      30.08S FOG
RICKENBACK AFB NOT AVBL
NEWARK         FOG       63  62  97 CALM      30.08R VSB 1/4
MARION         FAIR      65  62  90 CALM      30.08S FOG
LANCASTER      MOCLDY    61  61 100 CALM      30.08S FOG
ZANESVILLE     FAIR      64  62  93 CALM      30.08R FOG
NEW PHILLY     FOG       64  64 100 CALM      30.09R VSB 1/4
$$



USA.gov is the U.S. government's official web portal to all federal, state and local government web resources and services.